Date,TemperatureHighF,TemperatureAvgF,TemperatureLowF,DewpointHighF,DewpointAvgF,DewpointLowF,HumidityHigh,HumidityAvg,HumidityLow,PressureMaxIn,PressureMinIn,WindSpeedMaxMPH,WindSpeedAvgMPH,GustSpeedMaxMPH,PrecipitationSumIn
2013-1-1,50,48,40,47,45,37,92,88,79,30.07,29.94,15,3,0,0.13
2013-1-2,40,36,33,37,33,31,93,92,90,30.19,30.04,13,5,0,0.02
2013-1-3,42,34,28,32,30,26,93,83,60,30.37,30.14,14,5,0,0.01
2013-1-4,46,34,25,30,26,23,93,76,42,30.43,30.33,13,2,0,0.02
2013-1-5,48,36,26,37,29,24,93,79,48,30.39,30.24,7,0,0,0.03
2013-1-6,49,41,38,39,36,33,93,85,66,30.30,30.18,10,2,0,0.07
2013-1-7,52,38,28,33,31,27,93,77,46,30.36,30.26,10,2,0,0.08
2013-1-8,56,46,35,46,39,30,85,76,66,30.35,30.24,14,3,0,0.02
2013-1-9,56,52,48,54,49,45,92,90,85,30.39,30.28,9,3,0,0.01
2013-1-10,64,59,55,61,56,53,92,91,88,30.36,30.05,20,6,0,0.03
2013-1-11,65,64,62,63,61,59,92,89,86,30.14,30.05,18,5,0,0.02
2013-1-12,70,66,64,66,63,60,91,87,83,30.09,29.95,20,7,0,0.01
2013-1-13,68,62,43,65,59,41,93,90,84,30.10,29.91,19,8,0,0.01
2013-1-14,42,38,33,40,36,31,93,92,91,30.23,30.09,19,7,0,0.01
2013-1-15,44,39,36,42,37,33,92,91,91,30.13,29.94,12,3,0,0.02
2013-1-16,42,38,37,40,36,35,93,92,91,30.07,29.92,14,4,0,0.00
2013-1-17,39,37,32,37,35,31,93,91,87,30.35,29.84,19,9,0,0.01
2013-1-18,50,37,29,37,32,25,93,82,41,30.55,30.35,13,2,0,0.04
2013-1-19,55,41,29,35,31,27,93,71,43,30.41,30.21,11,2,0,0.03
2013-1-20,58,45,34,41,36,31,92,73,47,30.22,30.13,8,1,0,0.01
2013-1-21,45,37,30,34,26,19,93,68,38,30.23,30.10,16,4,0,0.02
2013-1-22,39,32,25,23,17,12,70,56,42,30.37,30.22,11,3,0,0.03
2013-1-23,54,43,33,39,30,22,73,62,49,30.36,30.18,9,2,0,0.02
2013-1-24,48,42,36,42,28,18,80,59,40,30.35,30.18,15,5,0,0.01
2013-1-25,49,42,36,43,32,15,92,69,41,30.29,30.07,17,4,0,0.01
2013-1-26,53,42,34,40,34,31,93,77,45,30.30,30.16,10,2,0,0.02
2013-1-27,50,45,40,41,37,34,83,73,64,30.36,30.28,12,3,0,0.01
2013-1-28,63,53,46,55,46,36,92,78,65,30.33,30.19,17,5,0,0.00
2013-1-29,67,59,51,63,56,49,92,90,87,30.19,29.82,14,6,0,0.01
2013-1-30,69,55,37,66,52,29,93,88,70,29.90,29.57,23,8,0,0.02
2013-1-31,49,38,30,29,27,25,85,64,43,30.16,29.91,17,6,0,0.01